sat.trackr.live / text

‹ back to catalog

CENTISPACE-1 S12

NORAD 62581 · 2025-007G

PAYLOAD ACTIVE UNKNOWN

§ Identity

Operator
Country
PRC
Launch date
2025-01-13
Launch site
YSLA
Launch vehicle
Mass (kg)
RCS (m²)

External: N2YO · Heavens-Above · Gunter

§ Orbital elements

Epoch: 2026-09-22T18:28:12.484416Z

Period
104.30 min
Inclination
54.9776°
Eccentricity
0.0013979
Mean motion
13.80622126 rev/d
Perigee alt
951.4 km
Apogee alt
971.9 km
Semi-major
7,339.8 km
B*
6.1197e-5
RAAN
310.0926°
Arg perigee
325.0521°
Mean anomaly
34.9516°
Rev number
8,821

§ Raw data

CENTISPACE-1 S121 62581U 25007G   26265.76958894 -.00000076  00000+0  61197-4 0  99942 62581  54.9776 310.0926 0013979 325.0521  34.9516 13.80622126 88218

JSON: /api/v1/satellites/62581 · /tle

For live sub-satellite position, see the globe view (requires WebGL).

§ Visibility from observer

Set your observer location to see the next 7 days of passes ≥ 10°. The values pass through the URL so the page stays shareable.

No JS? Fill the form by hand. The geolocation button needs JavaScript.

§ Radio — SatNOGS DB

ModeDescriptionDownlinkUplink
FM S-band telemetry 2.262 GHz

1 transmitter · refreshed weekly from db.satnogs.org